Lapse_Rate
7.0 6.9 6.3 5.1 5.2 5.2 5.9 6.0 6.2 6.1 6.2 6.0 6.1 6.1 6.0 5.9 5.8 5.8 5.8 5.6 5.9 5.9 5.7 5.4 6.3 7.1 6.6 6.2 6.2 6.3 6.4 6.4
5.8 5.9 5.4 5.2 4.4 5.2 5.9 5.6 5.7 6.1 6.0 5.8 5.8 5.7 5.8 5.6 5.7 5.5 5.7 5.7 5.6 5.7 5.8 5.9 6.0 6.8 6.5 6.2 6.2 6.2 6.2 6.2
6.9 5.8 5.6 5.2 4.9 5.5 5.6 5.8 5.6 5.8 5.5 5.6 5.9 6.0 5.7 5.7 5.6 5.4 5.7 5.6 5.6 5.6 5.8 6.3 6.3 6.5 6.3 6.1 6.3 6.3 6.3 6.3
6.5 5.0 4.7 4.4 5.1 5.5 5.3 5.5 5.7 5.6 5.7 5.7 5.8 5.7 5.6 5.5 5.5 5.5 5.0 5.5 5.7 5.5 6.0 6.6 6.1 6.4 6.2 6.3 6.2 6.1 6.1 5.9
6.4 5.9 5.9 5.0 5.1 5.3 5.4 5.3 5.6 5.5 5.7 5.6 5.4 5.4 5.5 5.6 5.3 5.4 5.6 5.7 5.7 5.6 6.0 6.7 6.1 6.3 6.4 6.2 6.0 5.8 5.8 5.6
6.4 5.9 6.0 5.9 6.1 5.9 5.9 5.9 5.4 5.4 5.3 5.3 5.3 5.5 5.6 5.4 5.1 5.5 6.1 5.8 5.9 6.0 6.5 6.3 6.2 6.5 6.6 5.9 5.7 5.7 5.6 5.7
6.2 5.9 5.9 5.8 5.6 5.7 5.8 5.2 5.2 4.7 5.0 5.2 5.2 5.1 5.3 5.2 5.2 5.9 6.2 6.0 6.1 6.4 6.8 6.7 6.6 6.6 6.3 6.1 5.8 5.7 5.6 5.7
5.8 6.1 5.8 5.7 5.4 5.2 5.3 5.2 4.6 4.5 4.9 4.9 4.9 5.0 5.1 5.2 5.8 6.1 6.2 6.3 6.3 6.6 6.7 6.6 6.7 6.1 6.1 6.0 5.9 5.6 5.7 5.8
5.3 5.6 5.2 5.2 5.4 5.2 5.2 5.3 4.6 4.7 4.6 4.7 4.6 5.0 5.0 5.5 5.5 6.3 6.2 6.5 6.5 6.5 6.5 6.6 6.2 6.0 5.7 5.6 5.6 5.8 6.0 6.1
5.5 5.5 5.6 5.3 5.1 5.1 5.2 5.0 4.7 4.2 4.0 4.7 5.0 5.1 5.2 5.5 6.2 6.3 6.5 6.4 6.3 6.6 6.7 6.2 6.0 5.9 5.9 5.7 5.5 5.7 6.0 6.0
5.2 5.2 5.1 5.1 5.0 4.9 4.8 4.6 4.6 4.1 4.4 4.8 4.8 5.4 5.5 6.0 6.3 6.3 6.4 6.2 6.3 6.3 6.3 6.4 6.2 6.0 5.8 5.7 5.7 5.6 5.9 6.2
5.8 5.6 5.4 5.1 4.8 4.7 4.7 4.6 4.7 4.5 4.6 4.6 5.0 5.4 5.8 6.4 6.3 6.3 6.1 6.2 6.4 6.7 6.5 6.4 6.3 6.1 6.0 6.1 6.1 6.0 6.1 5.8
7.0 6.5 6.0 5.4 5.0 5.0 4.9 4.9 4.7 4.4 4.4 4.4 4.9 5.6 6.0 6.2 6.2 6.0 6.2 6.5 6.5 6.5 6.5 6.4 6.2 6.1 6.1 6.3 6.4 6.3 6.1 5.9
7.0 6.9 6.8 6.6 6.2 5.6 5.3 5.5 5.5 5.8 5.9 5.3 5.5 5.8 6.5 6.1 6.0 6.3 6.6 6.5 6.7 6.7 6.5 6.5 6.4 6.2 6.1 5.9 5.7 5.8 5.9 5.7
7.1 7.1 7.1 6.9 6.8 6.5 6.4 6.1 6.0 6.2 6.3 6.3 5.8 6.3 6.2 6.4 6.2 6.5 6.5 6.6 6.7 6.7 6.6 6.5 6.2 5.9 5.6 5.5 5.4 5.4 5.3 5.4
7.3 7.2 7.1 7.1 6.9 6.9 6.7 6.4 6.6 6.6 6.5 6.3 6.2 6.0 6.1 6.4 6.4 6.5 6.6 6.5 6.5 6.4 6.4 6.3 5.7 5.4 5.5 5.8 5.6 5.3 5.2 5.1
7.3 7.1 6.9 7.0 7.0 6.8 6.7 6.6 6.5 6.4 6.6 6.4 6.1 6.0 6.3 6.4 6.5 6.6 6.6 6.5 6.5 6.4 6.1 6.0 5.9 5.9 5.7 5.6 5.6 5.4 5.4 5.7
7.5 7.4 7.2 7.0 6.8 6.7 6.8 6.7 6.7 6.8 6.8 6.7 6.7 6.6 6.7 6.8 6.7 6.4 6.3 6.4 6.3 6.3 6.4 6.3 6.4 5.9 5.7 5.6 5.5 5.3 5.2 5.2
7.3 7.4 7.3 7.1 7.0 6.9 6.9 6.9 6.8 6.9 7.1 7.2 7.1 6.8 6.9 7.1 6.5 5.9 6.1 6.2 6.3 6.4 6.4 6.5 6.3 6.0 5.9 5.4 5.2 5.2 5.4 5.4
7.6 7.6 7.5 7.6 7.6 7.5 7.3 7.3 7.2 7.1 7.1 7.1 7.2 7.2 6.9 6.6 6.1 5.9 6.2 6.1 6.6 6.4 6.7 6.6 6.4 6.2 5.8 5.4 5.5 5.5 5.2 5.1
Wind_Speed
10 16 26 27 24 27 33 27 27 26 28 28 27 28 28 27 25 23 22 19 18 19 20 21 24 22 25 25 22 20 21 18
10 9 34 35 23 24 30 29 27 26 27 28 28 27 26 26 25 22 23 20 17 17 18 20 24 24 28 26 22 21 21 20
12 14 21 26 16 24 28 29 28 27 26 27 24 20 21 21 21 21 21 21 17 15 16 19 20 24 24 23 20 20 19 19
9 20 6 15 16 17 21 24 20 18 18 18 17 19 18 20 23 26 24 18 15 14 14 13 15 20 19 20 18 18 18 15
13 16 23 18 8 18 14 17 16 16 18 19 18 17 16 14 14 15 19 17 14 14 11 10 12 15 17 19 17 15 14 13
15 14 12 15 12 10 15 14 16 14 15 18 17 13 12 13 11 15 15 15 13 12 10 11 11 14 20 18 16 13 11 10
9 11 10 12 11 10 10 9 13 15 16 16 17 15 9 12 13 14 13 13 14 11 13 11 10 11 15 16 14 13 12 9
10 10 10 9 4 11 8 10 11 15 14 15 17 17 12 11 11 12 12 15 14 15 13 11 10 12 10 15 14 14 11 10
9 12 11 10 8 13 10 10 11 10 11 16 20 19 17 13 10 7 12 16 13 13 9 10 8 7 7 10 14 14 13 11
9 11 11 10 9 14 9 4 9 9 12 15 17 19 20 15 8 7 14 12 14 9 7 4 4 4 4 4 9 14 15 14
8 9 12 12 9 10 7 7 6 7 7 7 6 11 16 14 11 13 16 13 10 8 2 4 4 4 4 4 7 7 11 12
11 10 12 11 9 6 2 1 2 6 6 10 10 13 15 16 12 13 16 7 5 4 4 2 3 5 4 4 4 5 10 11
12 11 9 9 9 9 5 5 2 3 5 9 13 16 16 15 9 8 11 8 9 8 4 5 1 3 4 2 1 2 3 3
14 14 12 11 9 8 5 7 3 4 6 11 16 15 17 14 11 6 10 6 6 6 5 3 2 3 3 2 1 3 2 4
15 16 15 13 12 6 3 3 2 5 6 8 10 14 15 15 14 10 9 7 7 7 6 7 4 1 2 4 2 4 1 0
14 14 14 13 14 10 10 10 10 10 9 8 7 16 16 17 16 14 10 8 6 6 4 4 5 4 2 2 2 5 4 2
14 15 15 15 13 14 10 12 10 6 4 8 9 6 16 17 15 13 8 7 6 7 7 7 5 5 5 3 1 1 2 2
16 18 19 17 17 17 17 17 13 9 7 8 9 8 6 12 14 13 11 9 8 7 6 9 6 5 4 4 3 3 3 3
19 21 22 20 19 19 20 19 15 16 13 11 10 6 4 8 10 9 7 10 11 10 10 8 8 8 7 5 3 3 3 3
22 22 22 22 23 23 20 20 13 13 15 10 9 10 8 11 11 10 10 9 10 12 8 7 8 7 9 6 4 3 3 3
Wind_Direction
145 181 156 145 141 130 124 118 116 116 121 121 122 120 120 118 116 113 108 104 98 90 87 83 82 87 116 113 109 107 107 107
137 55 147 130 144 128 113 117 111 113 112 114 117 118 120 118 118 119 115 113 106 96 87 73 69 77 116 118 115 115 111 109
85 50 110 113 172 111 108 112 113 114 114 114 116 119 120 116 121 119 120 119 115 95 81 69 63 84 111 118 119 120 120 117
122 112 71 112 128 110 114 119 122 121 126 119 118 119 126 127 132 137 126 124 115 104 89 70 66 85 115 121 120 123 120 125
122 130 141 139 152 133 128 126 124 128 130 130 133 126 122 122 131 123 123 131 122 117 97 81 108 96 113 114 121 119 122 124
133 141 142 153 156 143 135 138 129 135 138 136 132 133 124 129 133 132 137 139 135 127 121 118 109 106 113 124 128 127 121 115
126 138 136 151 154 116 121 126 134 149 145 143 144 131 134 144 133 150 157 151 145 142 142 136 125 112 112 124 132 132 127 131
129 138 143 145 150 136 128 122 135 142 147 152 147 134 155 141 151 166 175 164 166 158 157 148 133 124 115 126 144 140 139 144
138 137 139 149 154 144 142 150 142 135 139 148 139 157 152 154 162 165 191 182 180 168 146 143 134 144 137 131 137 155 159 159
142 145 155 146 143 156 174 145 154 167 163 148 164 160 167 175 165 181 195 190 173 169 154 145 163 160 153 158 155 160 174 166
148 153 149 140 160 183 195 179 176 188 176 134 185 195 183 165 172 192 189 177 177 164 161 143 162 173 177 175 174 176 180 171
170 168 165 163 169 186 239 263 242 218 175 183 206 221 198 184 185 178 175 163 161 157 158 167 163 177 180 174 193 209 179 176
181 182 183 168 178 185 180 213 227 277 242 215 224 222 213 194 182 180 169 175 183 183 151 162 159 150 103 34 299 266 249 214
186 186 184 192 185 187 187 194 210 227 226 251 234 214 197 194 188 188 180 185 182 170 157 134 114 160 138 80 241 319 308 227
190 189 185 190 190 183 181 179 242 222 234 241 235 212 196 197 200 194 192 189 187 186 172 154 143 199 205 143 114 227 320 354
193 194 196 195 192 196 204 203 207 218 224 223 214 207 205 204 197 196 193 193 188 182 162 163 140 149 83 292 180 156 182 281
194 194 203 205 201 204 206 218 220 228 220 225 227 210 210 207 196 194 195 196 196 170 170 165 168 156 167 168 129 75 75 133
194 195 206 207 207 208 209 213 217 221 228 223 226 223 212 205 198 196 200 202 195 180 182 167 166 144 161 149 165 168 187 167
197 200 205 207 208 211 213 215 213 220 223 221 214 208 201 198 184 195 205 202 195 174 179 178 168 173 173 182 174 175 139 175
198 201 207 207 209 213 215 219 219 223 225 216 215 216 212 190 202 201 203 184 189 183 176 180 163 162 176 179 163 183 163 186